TLEEKTOWN Weather Reports


time (UTC)temp
F
wind
direction
speed
knots
gust
knots
rain 1hr
in
rain 24hr
in
rain mn
in
humidity
%
barometer
mb
20260505023031 66 0 0.0 3.5 0.00 0.00 0.00 51 1010.8
20260505022511 66 0 0.0 3.5 0.00 0.00 0.00 50 1010.8
20260505022014 66 0 0.0 0.0 0.00 0.00 0.00 50 1010.8
20260505021530 66 0 0.0 0.0 0.00 0.00 0.00 50 1010.8
20260505021010 66 0 0.0 0.9 0.00 0.00 0.00 49 1010.7
20260505020509 66 0 0.0 0.9 0.00 0.00 0.00 49 1010.6
20260505020038 67 0 0.0 0.9 0.00 0.00 0.00 49 1010.5
20260505015508 67 0 0.0 0.9 0.00 0.00 0.00 49 1010.6
20260505015008 67 0 0.0 0.0 0.00 0.00 0.00 48 1010.6
20260505014528 67 0 0.0 0.0 0.00 0.00 0.00 47 1010.6
20260505014010 68 0 0.0 0.0 0.00 0.00 0.00 47 1010.4
20260505013513 68 0 0.0 0.9 0.00 0.00 0.00 46 1010.4
20260505013027 68 0 0.0 0.9 0.00 0.00 0.00 46 1010.4
20260505012507 68 0 0.0 0.0 0.00 0.00 0.00 46 1010.2
20260505012008 69 0 0.0 0.0 0.00 0.00 0.00 46 1010.4
20260505011528 69 0 0.0 1.7 0.00 0.00 0.00 45 1010.2
20260505011008 69 0 0.0 1.7 0.00 0.00 0.00 45 1010.2
20260505010508 69 0 0.0 1.7 0.00 0.00 0.00 44 1010.1
20260505010030 70 0 0.0 0.9 0.00 0.00 0.00 44 1010.2
20260505005508 70 0 0.0 1.7 0.00 0.00 0.00 44 1010.2
20260505005009 70 0 0.0 2.6 0.00 0.00 0.00 43 1010.1
20260505004528 70 127 0.0 2.6 0.00 0.00 0.00 43 1010.0
20260505004008 70 0 0.0 1.7 0.00 0.00 0.00 43 1010.0
20260505003511 71 231 0.0 3.5 0.00 0.00 0.00 42 1010.0
20260505003030 71 0 0.0 3.5 0.00 0.00 0.00 41 1010.0
20260505002512 71 0 0.0 2.6 0.00 0.00 0.00 42 1010.0
20260505002012 71 0 0.0 2.6 0.00 0.00 0.00 41 1010.0
20260505001528 72 150 0.0 7.8 0.00 0.00 0.00 41 1009.9
20260505001011 72 0 0.0 7.8 0.00 0.00 0.00 40 1010.0
20260505000508 72 0 0.0 3.5 0.00 0.00 0.00 40 1009.9
20260505000031 72 0 0.0 7.8 0.00 0.00 0.00 40 1010.0
20260504235510 72 0 0.0 7.8 0.00 0.00 0.00 39 1010.0
20260504235011 72 0 0.0 6.1 0.00 0.00 0.00 39 1009.9
20260504234533 72 188 0.0 6.1 0.00 0.00 0.00 39 1009.9
20260504234010 72 0 0.9 6.1 0.00 0.00 0.00 39 1009.9
20260504233508 72 0 0.0 1.7 0.00 0.00 0.00 38 1009.8
20260504233031 72 0 0.0 2.6 0.00 0.00 0.00 38 1009.8
20260504232512 73 0 0.0 2.6 0.00 0.00 0.00 38 1009.7
20260504232010 73 98 0.9 10.4 0.00 0.00 0.00 37 1009.7
20260504231532 73 0 0.9 10.4 0.00 0.00 0.00 37 1009.6
20260504231011 73 347 0.9 5.2 0.00 0.00 0.00 37 1009.7
20260504230508 73 0 0.0 7.8 0.00 0.00 0.00 37 1009.6
20260504230030 73 0 0.0 7.8 0.00 0.00 0.00 37 1009.7
20260504225510 73 69 0.9 7.8 0.00 0.00 0.00 36 1009.6
20260504225009 74 215 1.7 7.0 0.00 0.00 0.00 36 1009.6
20260504224535 74 110 0.9 5.2 0.00 0.00 0.00 36 1009.7
20260504224009 74 0 0.9 5.2 0.00 0.00 0.00 36 1009.7
20260504223511 74 0 0.9 4.3 0.00 0.00 0.00 36 1009.8
20260504223032 74 112 0.9 7.8 0.00 0.00 0.00 36 1009.8
20260504222510 74 119 2.6 7.8 0.00 0.00 0.00 35 1009.7
20260504222012 74 117 0.9 7.8 0.00 0.00 0.00 35 1009.6
20260504221530 75 91 1.7 6.1 0.00 0.00 0.00 35 1009.6
20260504221009 75 304 1.7 9.6 0.00 0.00 0.00 34 1009.7
20260504220512 75 86 1.7 9.6 0.00 0.00 0.00 34 1009.7
20260504220030 76 331 3.5 9.6 0.00 0.00 0.00 33 1009.7
20260504215512 76 59 0.9 9.6 0.00 0.00 0.00 35 1009.7
20260504215011 76 109 2.6 9.6 0.00 0.00 0.00 32 1009.5
20260504214539 77 101 2.6 5.2 0.00 0.00 0.00 32 1009.6
20260504214014 76 113 0.0 6.1 0.00 0.00 0.00 35 1009.6
20260504213510 76 174 0.9 9.6 0.00 0.00 0.00 33 1009.6
20260504213030 77 154 3.5 9.6 0.00 0.00 0.00 31 1009.7
20260504212512 78 53 0.9 8.7 0.00 0.00 0.00 32 1009.5
20260504212013 77 78 0.9 6.1 0.00 0.00 0.00 32 1009.6
20260504211530 77 0 0.9 5.2 0.00 0.00 0.00 34 1009.6
20260504211010 76 97 0.9 7.0 0.00 0.00 0.00 33 1009.7
20260504210517 76 187 1.7 7.0 0.00 0.00 0.00 33 1009.7
20260504210030 76 242 1.7 5.2 0.00 0.00 0.00 31 1009.7
20260504205511 77 99 0.0 8.7 0.00 0.00 0.00 32 1009.5
20260504205014 77 237 0.9 8.7 0.00 0.00 0.00 30 1009.6
20260504204530 77 163 2.6 8.7 0.00 0.00 0.00 32 1009.7
20260504204010 77 168 1.7 6.1 0.00 0.00 0.00 30 1009.7
20260504203509 78 0 0.9 5.2 0.00 0.00 0.00 31 1009.8
20260504203030 78 219 0.9 7.8 0.00 0.00 0.00 32 1009.8
20260504202512 78 248 1.7 7.8 0.00 0.00 0.00 30 1009.8
20260504202013 78 309 1.7 6.1 0.00 0.00 0.00 31 1009.9
20260504201529 78 0 0.9 7.0 0.00 0.00 0.00 32 1010.0
20260504201013 78 219 0.9 7.0 0.00 0.00 0.00 30 1010.2
20260504200514 78 0 0.9 7.8 0.00 0.00 0.00 33 1010.2
20260504200035 77 34 0.9 7.8 0.00 0.00 0.00 31 1010.2
20260504195511 77 323 0.9 7.8 0.00 0.00 0.00 35 1010.2
20260504195011 77 91 1.7 7.8 0.00 0.00 0.00 31 1010.2
20260504194531 77 236 1.7 7.0 0.00 0.00 0.00 32 1010.3
20260504194010 76 129 0.9 7.0 0.00 0.00 0.00 34 1010.3
20260504193514 76 341 1.7 7.0 0.00 0.00 0.00 32 1010.4
20260504193030 76 69 0.9 7.0 0.00 0.00 0.00 32 1010.6
20260504192514 76 169 0.9 6.1 0.00 0.00 0.00 33 1010.7
20260504192010 76 136 1.7 7.0 0.00 0.00 0.00 32 1010.8
20260504191533 76 210 0.9 7.8 0.00 0.00 0.00 33 1010.9
20260504191013 76 108 1.7 7.8 0.00 0.00 0.00 33 1011.1
20260504190517 76 337 0.9 7.8 0.00 0.00 0.00 32 1011.0
20260504190028 76 60 1.7 7.0 0.00 0.00 0.00 33 1011.2
20260504185510 76 0 1.7 7.0 0.00 0.00 0.00 33 1011.2
20260504185009 76 304 1.7 4.3 0.00 0.00 0.00 32 1011.2
20260504184536 75 268 0.9 7.0 0.00 0.00 0.00 37 1011.4
20260504184012 75 265 0.9 7.0 0.00 0.00 0.00 35 1011.4
20260504183514 74 271 1.7 7.0 0.00 0.00 0.00 35 1011.5
20260504183034 74 311 0.9 6.1 0.00 0.00 0.00 33 1011.5
20260504182508 74 71 1.7 7.8 0.00 0.00 0.00 36 1011.7
20260504182016 74 223 1.7 7.8 0.00 0.00 0.00 35 1011.7
20260504181532 74 257 2.6 7.8 0.00 0.00 0.00 37 1011.9
20260504181010 73 261 1.7 5.2 0.00 0.00 0.00 33 1011.8
20260504180511 73 340 1.7 9.6 0.00 0.00 0.00 36 1011.9
20260504180030 73 113 1.7 9.6 0.00 0.00 0.00 35 1012.0
20260504175511 73 250 1.7 7.0 0.00 0.00 0.00 35 1012.1
20260504175008 73 256 1.7 6.1 0.00 0.00 0.00 35 1012.1
20260504174528 73 307 0.9 5.2 0.00 0.00 0.00 36 1012.2
20260504174010 73 217 0.9 7.0 0.00 0.00 0.00 35 1012.2
20260504173514 72 0 0.9 7.0 0.00 0.00 0.00 37 1012.3
20260504173030 72 119 2.6 7.0 0.00 0.00 0.00 34 1012.4
20260504172516 72 0 1.7 7.0 0.00 0.00 0.00 37 1012.4
20260504172011 72 216 1.7 7.0 0.00 0.00 0.00 33 1012.5
20260504171530 72 113 0.9 6.1 0.00 0.00 0.00 34 1012.7
20260504171014 72 133 0.0 6.1 0.00 0.00 0.00 35 1012.7
20260504170508 72 336 0.0 5.2 0.00 0.00 0.00 37 1012.7
20260504151010 67 198 0.0 7.0 0.00 0.00 0.00 35 1014.0
20260504150510 67 333 0.9 7.0 0.00 0.00 0.00 36 1013.9
20260504141019 64 114 0.9 5.2 0.00 0.00 0.00 42 1014.1
20260504140510 63 163 0.9 4.3 0.00 0.00 0.00 43 1014.1
20260504130511 58 143 0.9 2.6 0.00 0.00 0.00 50 1014.8
20260504110510 48 0 0.0 0.9 0.00 0.00 0.00 68 1015.0
20260504100508 50 0 0.0 0.0 0.00 0.00 0.00 65 1014.9
20260504081533 47 0 0.0 1.7 0.00 0.00 0.00 74 1015.0
20260504081014 47 0 0.0 0.9 0.00 0.00 0.00 74 1015.1
20260504080517 47 0 0.0 0.0 0.00 0.00 0.00 74 1015.2
20260504050508 45 0 0.0 0.0 0.00 0.00 0.00 66 1015.6
20260504045511 45 0 0.0 0.0 0.00 0.00 0.00 65 1015.6
20260504045016 45 0 0.0 0.0 0.00 0.00 0.00 66 1015.5
20260504044528 45 0 0.0 0.0 0.00 0.00 0.00 70 1015.6
20260504044011 45 0 0.0 0.0 0.00 0.00 0.00 68 1015.6
20260504043512 45 0 0.0 0.0 0.00 0.00 0.00 66 1015.5
20260504043030 45 0 0.0 0.9 0.00 0.00 0.00 66 1015.5
20260504042512 45 0 0.0 0.9 0.00 0.00 0.00 67 1015.5
20260504042011 45 0 0.0 0.9 0.00 0.00 0.00 66 1015.5
20260504041529 45 0 0.0 0.0 0.00 0.00 0.00 65 1015.4
20260504041008 45 0 0.0 0.0 0.00 0.00 0.00 65 1015.4
20260504040511 45 0 0.0 0.0 0.00 0.00 0.00 67 1015.4
20260504040029 45 0 0.0 0.0 0.00 0.00 0.00 68 1015.4
20260504035508 45 0 0.0 0.0 0.00 0.00 0.00 66 1015.5
20260504035010 45 0 0.0 0.0 0.00 0.00 0.00 64 1015.6
20260504034528 45 0 0.0 0.0 0.00 0.00 0.00 67 1015.5
20260504034011 45 0 0.0 0.0 0.00 0.00 0.00 66 1015.5
20260504033508 45 0 0.0 0.0 0.00 0.00 0.00 66 1015.4
20260504033028 45 0 0.0 0.0 0.00 0.00 0.00 67 1015.4
20260504032512 45 0 0.0 0.0 0.00 0.00 0.00 68 1015.3
20260504032013 45 0 0.0 0.0 0.00 0.00 0.00 68 1015.3
20260504031530 45 0 0.0 0.0 0.00 0.00 0.00 68 1015.3
20260504031011 46 0 0.0 0.0 0.00 0.00 0.00 66 1015.3
20260504030512 46 0 0.0 0.0 0.00 0.00 0.00 66 1015.3
20260504030034 46 0 0.0 0.0 0.00 0.00 0.00 67 1015.2
20260504025511 46 0 0.0 0.0 0.00 0.00 0.00 67 1015.3
20260504025014 46 0 0.0 0.0 0.00 0.00 0.00 67 1015.2
20260504024529 46 0 0.0 0.0 0.00 0.00 0.00 65 1015.2
20260504024010 47 0 0.0 0.0 0.00 0.00 0.00 65 1015.1
20260504023509 47 0 0.0 0.0 0.00 0.00 0.00 64 1015.2